Change the Weather History Date:

Thursday, August 22, 2013

  Actual Average Record
Temperature  
Mean Temperature 75 °F -  
Max Temperature 83 °F 88 °F 93 °F (2001)
Min Temperature 68 °F 60 °F 54 °F (2012)
Cooling Degree Days 10    
Growing Degree Days 25 (Base 50)    
Moisture  
Dew Point 67 °F    
Average Humidity 81    
Maximum Humidity 97    
Minimum Humidity 58    
Precipitation  
Precipitation 0.02 in - - ()
Sea Level Pressure  
Sea Level Pressure 30.07 in    
Wind  
Wind Speed 9 mph (SE)    
Max Wind Speed 23 mph    
Max Gust Speed 30 mph    
Visibility 9 miles    
Events Rain , Thunderstorm    
Averages and records for this station are not official NWS values.
T = Trace of Precipitation, MM = Missing Value Source: NWS Daily Summary

Daily Weather History Graph

Daily Weather History Graph

Search for Another Location

Airport or City:

Trip Planner

Search our weather history database for the weather conditions in past years. The results will help you decide how hot, cold, wet, or windy it might be!

Date:

Astronomy

Aug. 22, 2013 Rise Set
Actual Time 6:13 AM CDT 7:42 PM CDT
Civil Twilight 5:44 AM CDT 8:11 PM CDT
Nautical Twilight 5:10 AM CDT 8:45 PM CDT
Astronomical Twilight 4:33 AM CDT 9:22 PM CDT
Moon 8:25 PM CDT (8/22) 8:02 AM CDT (8/22)
Length of Visible Light 14h 26m
Length of Day
13h 29m
Waning Gibbous, 96% of the Moon is Illuminated
Aug 22
Waning Gibbous
Aug 28
Last Quarter
Sep 5
New
Sep 12
First Quarter
Sep 19
Full

Hourly Weather History & Observations

Time (CDT) Temp. Heat Index Dew Point Humidity Pressure Visibility Wind Dir Wind Speed Gust Speed Precip Events Conditions
12:56 AM 72.0 °F - 66.9 °F 84% 30.04 in 10.0 mi SSW 10.4 mph - N/A   Clear
1:56 AM 70.9 °F - 66.9 °F 87% 30.03 in 9.0 mi SSW 8.1 mph - N/A   Scattered Clouds
2:56 AM 72.9 °F - 66.9 °F 82% 30.04 in 10.0 mi WSW 6.9 mph - N/A   Partly Cloudy
3:11 AM 73.4 °F - 66.2 °F 78% 30.10 in 10.0 mi WSW 5.8 mph - N/A Thunderstorm Mostly Cloudy
3:26 AM 73.4 °F - 66.2 °F 78% 30.11 in 10.0 mi WSW 8.1 mph - N/A   Overcast
3:56 AM 72.9 °F - 68.0 °F 85% 30.05 in 8.0 mi SW 9.2 mph - 0.00 in Rain Light Rain
4:05 AM 73.4 °F - 68.0 °F 83% 30.08 in 6.0 mi SSW 10.4 mph - 0.00 in Rain Light Rain
4:56 AM 70.9 °F - 68.0 °F 91% 30.04 in 9.0 mi WSW 10.4 mph - 0.02 in Rain Light Rain
5:56 AM 70.0 °F - 66.9 °F 90% 30.04 in 8.0 mi SSE 6.9 mph - 0.00 in   Scattered Clouds
6:56 AM 70.9 °F - 68.0 °F 91% 30.06 in 8.0 mi Calm Calm - N/A   Mostly Cloudy
7:56 AM 72.0 °F - 68.0 °F 87% 30.07 in 8.0 mi WSW 4.6 mph - N/A   Clear
8:56 AM 72.9 °F - 68.9 °F 87% 30.10 in 6.0 mi NE 9.2 mph - 0.00 in   Mostly Cloudy
9:56 AM 73.9 °F - 68.9 °F 84% 30.10 in 8.0 mi ENE 9.2 mph - 0.00 in   Mostly Cloudy
10:56 AM 77.9 °F - 70.0 °F 76% 30.11 in 10.0 mi ENE 12.7 mph - N/A   Clear
11:56 AM 79.9 °F - 65.8 °F 62% 30.10 in 10.0 mi NE 13.8 mph - N/A   Scattered Clouds
12:56 PM 82.9 °F 85.4 °F 66.9 °F 58% 30.07 in 10.0 mi ENE 9.2 mph - N/A   Scattered Clouds
1:56 PM 73.9 °F - 64.9 °F 73% 30.12 in 10.0 mi NNE 23.0 mph 29.9 mph N/A   Mostly Cloudy
2:56 PM 73.9 °F - 64.9 °F 73% 30.10 in 10.0 mi East 9.2 mph - 0.00 in   Partly Cloudy
3:56 PM 75.9 °F - 64.9 °F 69% 30.06 in 10.0 mi East 9.2 mph - N/A   Clear
4:56 PM 75.9 °F - 65.8 °F 71% 30.03 in 10.0 mi SSE 12.7 mph - N/A   Clear
5:56 PM 73.9 °F - 66.9 °F 79% 30.03 in 10.0 mi South 9.2 mph - N/A   Clear
6:56 PM 73.9 °F - 66.9 °F 79% 30.04 in 10.0 mi Calm Calm - N/A   Scattered Clouds
7:56 PM 72.9 °F - 66.9 °F 82% 30.05 in 10.0 mi South 4.6 mph - N/A   Mostly Cloudy
8:56 PM 73.9 °F - 66.9 °F 79% 30.08 in 10.0 mi NNE 8.1 mph - 0.00 in   Scattered Clouds
9:56 PM 70.0 °F - 68.0 °F 93% 30.10 in 10.0 mi NNE 8.1 mph - 0.00 in   Mostly Cloudy
10:56 PM 68.9 °F - 68.0 °F 97% 30.10 in 10.0 mi ENE 6.9 mph - 0.00 in   Mostly Cloudy
11:56 PM 68.9 °F - 68.0 °F 97% 30.10 in 8.0 mi East 6.9 mph - N/A   Mostly Cloudy